Time,TemperatureF,DewpointF,PressureIn,WindDirection,WindDirectionDegrees,WindSpeedMPH,WindSpeedGustMPH,Humidity,HourlyPrecipIn,Conditions,Clouds,dailyrainin,SoftwareType,DateUTC
2013-12-11 00:06:00,30.0,23.0,30.33,NNE,23,2.0,2.0,74,0.00,,,0.18,weatherlink.com 1.10,2013-12-11 05:06:00,
2013-12-11 00:21:00,29.9,24.0,30.33,NNE,23,0.0,2.0,78,0.00,,,0.18,weatherlink.com 1.10,2013-12-11 05:21:00,
2013-12-11 00:36:00,29.3,24.0,30.33,NNE,23,0.0,0.0,79,0.00,,,0.18,weatherlink.com 1.10,2013-12-11 05:36:00,
2013-12-11 00:51:00,28.8,24.0,30.33,NNE,23,0.0,0.0,81,0.00,,,0.18,weatherlink.com 1.10,2013-12-11 05:51:00,
2013-12-11 01:06:00,28.1,23.0,30.33,NNE,23,1.0,3.0,81,0.00,,,0.18,weatherlink.com 1.10,2013-12-11 06:06:00,
2013-12-11 01:21:00,28.7,23.0,30.33,NNE,23,0.0,1.0,80,0.00,,,0.18,weatherlink.com 1.10,2013-12-11 06:21:00,
2013-12-11 01:36:00,27.9,23.0,30.34,NNE,23,1.0,1.0,83,0.00,,,0.18,weatherlink.com 1.10,2013-12-11 06:36:00,
2013-12-11 01:51:00,27.4,23.0,30.34,NNE,23,0.0,1.0,83,0.00,,,0.18,weatherlink.com 1.10,2013-12-11 06:51:00,
2013-12-11 02:06:00,27.8,22.0,30.34,NNE,23,0.0,2.0,79,0.00,,,0.18,weatherlink.com 1.10,2013-12-11 07:06:00,
2013-12-11 02:21:00,27.7,22.0,30.34,NNE,23,2.0,2.0,80,0.00,,,0.18,weatherlink.com 1.10,2013-12-11 07:21:00,
2013-12-11 02:36:00,28.9,23.0,30.34,NE,45,3.0,4.0,77,0.00,,,0.18,weatherlink.com 1.10,2013-12-11 07:36:00,
2013-12-11 02:51:00,28.8,22.0,30.35,ENE,59,2.0,4.0,76,0.00,,,0.18,weatherlink.com 1.10,2013-12-11 07:51:00,
2013-12-11 03:06:00,29.5,22.0,30.36,ENE,75,3.0,5.0,74,0.00,,,0.18,weatherlink.com 1.10,2013-12-11 08:06:00,
2013-12-11 03:21:00,29.8,22.0,30.36,NE,37,5.0,6.0,73,0.00,,,0.18,weatherlink.com 1.10,2013-12-11 08:21:00,
2013-12-11 03:36:00,30.2,22.0,30.36,ENE,58,5.0,6.0,72,0.00,,,0.18,weatherlink.com 1.10,2013-12-11 08:36:00,
2013-12-11 03:51:00,29.2,22.0,30.37,ENE,64,4.0,8.0,74,0.00,,,0.18,weatherlink.com 1.10,2013-12-11 08:51:00,
2013-12-11 04:06:00,29.8,21.0,30.37,East,93,0.0,8.0,71,0.00,,,0.18,weatherlink.com 1.10,2013-12-11 09:06:00,
2013-12-11 04:21:00,27.4,22.0,30.37,SSW,193,0.0,1.0,79,0.00,,,0.18,weatherlink.com 1.10,2013-12-11 09:21:00,
2013-12-11 04:37:00,25.9,21.0,30.38,SSW,193,1.0,2.0,83,0.00,,,0.18,weatherlink.com 1.10,2013-12-11 09:37:00,
2013-12-11 04:52:00,25.2,22.0,30.38,SSW,193,0.0,1.0,86,0.00,,,0.18,weatherlink.com 1.10,2013-12-11 09:52:00,
2013-12-11 05:07:00,25.9,21.0,30.39,SSW,193,0.0,1.0,83,0.00,,,0.18,weatherlink.com 1.10,2013-12-11 10:07:00,
2013-12-11 05:22:00,24.8,21.0,30.39,SSW,193,0.0,1.0,86,0.00,,,0.18,weatherlink.com 1.10,2013-12-11 10:22:00,
2013-12-11 05:37:00,24.1,21.0,30.39,SSW,193,0.0,1.0,88,0.00,,,0.18,weatherlink.com 1.10,2013-12-11 10:37:00,
2013-12-11 05:52:00,25.0,21.0,30.39,SSW,193,0.0,0.0,86,0.00,,,0.18,weatherlink.com 1.10,2013-12-11 10:52:00,
2013-12-11 06:07:00,25.3,21.0,30.40,SSW,193,1.0,2.0,85,0.00,,,0.00,weatherlink.com 1.10,2013-12-11 11:07:00,
2013-12-11 06:22:00,26.1,22.0,30.40,SSW,193,0.0,2.0,83,0.00,,,0.00,weatherlink.com 1.10,2013-12-11 11:22:00,
2013-12-11 06:37:00,25.5,21.0,30.41,SSW,193,0.0,1.0,84,0.00,,,0.00,weatherlink.com 1.10,2013-12-11 11:37:00,
2013-12-11 06:52:00,25.1,21.0,30.42,SSW,193,0.0,0.0,84,0.00,,,0.00,weatherlink.com 1.10,2013-12-11 11:52:00,
2013-12-11 07:07:00,25.3,21.0,30.42,SSW,193,0.0,0.0,83,0.00,,,0.00,weatherlink.com 1.10,2013-12-11 12:07:00,
2013-12-11 07:22:00,25.1,21.0,30.43,SSW,193,0.0,0.0,83,0.00,,,0.00,weatherlink.com 1.10,2013-12-11 12:22:00,
2013-12-11 07:37:00,26.2,21.0,30.43,SSW,193,0.0,2.0,81,0.00,,,0.00,weatherlink.com 1.10,2013-12-11 12:37:00,
2013-12-11 07:52:00,26.3,21.0,30.43,SSW,193,0.0,2.0,81,0.00,,,0.00,weatherlink.com 1.10,2013-12-11 12:52:00,
2013-12-11 08:07:00,25.9,21.0,30.43,SSW,193,0.0,1.0,83,0.00,,,0.00,weatherlink.com 1.10,2013-12-11 13:07:00,
2013-12-11 08:22:00,26.6,23.0,30.43,SSW,193,0.0,0.0,85,0.00,,,0.00,weatherlink.com 1.10,2013-12-11 13:22:00,
2013-12-11 08:37:00,27.0,23.0,30.44,SSW,193,1.0,2.0,85,0.00,,,0.00,weatherlink.com 1.10,2013-12-11 13:37:00,
2013-12-11 08:52:00,28.1,24.0,30.44,SSW,193,0.0,2.0,83,0.00,,,0.00,weatherlink.com 1.10,2013-12-11 13:52:00,
2013-12-11 09:07:00,30.5,24.0,30.44,SSW,193,0.0,1.0,78,0.00,,,0.00,weatherlink.com 1.10,2013-12-11 14:07:00,
2013-12-11 09:22:00,33.3,26.0,30.44,SSW,193,0.0,1.0,74,0.00,,,0.00,weatherlink.com 1.10,2013-12-11 14:22:00,
2013-12-11 09:37:00,35.2,26.0,30.45,SSW,193,0.0,1.0,70,0.00,,,0.00,weatherlink.com 1.10,2013-12-11 14:37:00,
2013-12-11 09:52:00,35.8,27.0,30.45,SW,236,0.0,2.0,69,0.00,,,0.00,weatherlink.com 1.10,2013-12-11 14:52:00,
2013-12-11 10:08:00,37.1,23.0,30.46,SE,142,1.0,3.0,58,0.00,,,0.00,weatherlink.com 1.10,2013-12-11 15:08:00,
2013-12-11 10:23:00,38.4,22.0,30.46,SSE,157,1.0,3.0,53,0.00,,,0.00,weatherlink.com 1.10,2013-12-11 15:23:00,
2013-12-11 10:38:00,39.2,25.0,30.45,SSW,195,0.0,4.0,56,0.00,,,0.00,weatherlink.com 1.10,2013-12-11 15:38:00,
2013-12-11 10:53:00,40.4,25.0,30.45,SE,129,1.0,4.0,55,0.00,,,0.00,weatherlink.com 1.10,2013-12-11 15:53:00,
2013-12-11 11:08:00,41.0,25.0,30.44,SE,130,1.0,5.0,54,0.00,,,0.00,weatherlink.com 1.10,2013-12-11 16:08:00,
2013-12-11 11:23:00,41.9,26.0,30.43,SSW,208,4.0,6.0,53,0.00,,,0.00,weatherlink.com 1.10,2013-12-11 16:23:00,
2013-12-11 11:38:00,42.6,26.0,30.43,WSW,240,4.0,5.0,52,0.00,,,0.00,weatherlink.com 1.10,2013-12-11 16:38:00,
2013-12-11 11:53:00,42.5,25.0,30.42,SW,223,4.0,7.0,50,0.00,,,0.00,weatherlink.com 1.10,2013-12-11 16:53:00,
2013-12-11 12:08:00,43.2,26.0,30.41,WSW,243,0.0,6.0,51,0.00,,,0.00,weatherlink.com 1.10,2013-12-11 17:08:00,
2013-12-11 12:23:00,44.0,27.0,30.40,SW,224,1.0,6.0,51,0.00,,,0.00,weatherlink.com 1.10,2013-12-11 17:23:00,
2013-12-11 12:38:00,44.4,27.0,30.39,NNW,328,4.0,7.0,50,0.00,,,0.00,weatherlink.com 1.10,2013-12-11 17:38:00,
2013-12-11 12:53:00,45.5,27.0,30.38,WSW,250,5.0,6.0,48,0.00,,,0.00,weatherlink.com 1.10,2013-12-11 17:53:00,
2013-12-11 13:08:00,46.1,27.0,30.37,SW,229,1.0,7.0,47,0.00,,,0.00,weatherlink.com 1.10,2013-12-11 18:08:00,
2013-12-11 13:23:00,47.1,26.0,30.36,West,259,2.0,7.0,44,0.00,,,0.00,weatherlink.com 1.10,2013-12-11 18:23:00,
2013-12-11 13:38:00,48.0,27.0,30.35,WSW,258,2.0,6.0,45,0.00,,,0.00,weatherlink.com 1.10,2013-12-11 18:38:00,
2013-12-11 13:53:00,48.1,27.0,30.34,SW,229,4.0,7.0,44,0.00,,,0.00,weatherlink.com 1.10,2013-12-11 18:53:00,
2013-12-11 14:08:00,48.8,27.0,30.34,SSW,195,3.0,8.0,43,0.00,,,0.00,weatherlink.com 1.10,2013-12-11 19:08:00,
2013-12-11 14:23:00,49.8,27.0,30.33,North,9,1.0,7.0,42,0.00,,,0.00,weatherlink.com 1.10,2013-12-11 19:23:00,
2013-12-11 14:38:00,50.7,28.0,30.33,SW,214,3.0,6.0,41,0.00,,,0.00,weatherlink.com 1.10,2013-12-11 19:38:00,
2013-12-11 14:53:00,51.3,27.0,30.32,SW,220,2.0,6.0,39,0.00,,,0.00,weatherlink.com 1.10,2013-12-11 19:53:00,
2013-12-11 15:08:00,51.3,28.0,30.32,SSW,204,7.0,7.0,41,0.00,,,0.00,weatherlink.com 1.10,2013-12-11 20:08:00,
2013-12-11 15:23:00,51.4,28.0,30.31,SW,229,4.0,6.0,41,0.00,,,0.00,weatherlink.com 1.10,2013-12-11 20:23:00,
2013-12-11 15:38:00,51.7,28.0,30.31,SW,220,5.0,6.0,41,0.00,,,0.00,weatherlink.com 1.10,2013-12-11 20:38:00,
2013-12-11 15:54:00,51.0,28.0,30.31,WSW,257,3.0,9.0,41,0.00,,,0.00,weatherlink.com 1.10,2013-12-11 20:54:00,
2013-12-11 16:09:00,50.9,28.0,30.31,SSW,198,4.0,9.0,42,0.00,,,0.00,weatherlink.com 1.10,2013-12-11 21:09:00,
2013-12-11 16:24:00,50.8,29.0,30.32,SSW,213,2.0,6.0,43,0.00,,,0.00,weatherlink.com 1.10,2013-12-11 21:24:00,
2013-12-11 16:39:00,50.4,29.0,30.32,SSW,213,4.0,5.0,44,0.00,,,0.00,weatherlink.com 1.10,2013-12-11 21:39:00,
2013-12-11 16:54:00,49.3,29.0,30.32,South,189,2.0,5.0,45,0.00,,,0.00,weatherlink.com 1.10,2013-12-11 21:54:00,
2013-12-11 17:09:00,48.5,29.0,30.32,SSE,168,0.0,4.0,47,0.00,,,0.00,weatherlink.com 1.10,2013-12-11 22:09:00,
2013-12-11 17:24:00,47.7,28.0,30.32,South,181,0.0,3.0,46,0.00,,,0.00,weatherlink.com 1.10,2013-12-11 22:24:00,
2013-12-11 17:39:00,47.4,28.0,30.32,SE,132,1.0,2.0,47,0.00,,,0.00,weatherlink.com 1.10,2013-12-11 22:39:00,
2013-12-11 17:54:00,46.4,27.0,30.32,SE,136,2.0,2.0,48,0.00,,,0.00,weatherlink.com 1.10,2013-12-11 22:54:00,
2013-12-11 18:09:00,45.5,28.0,30.32,SE,136,0.0,2.0,51,0.00,,,0.00,weatherlink.com 1.10,2013-12-11 23:09:00,
2013-12-11 18:24:00,44.5,29.0,30.32,SE,136,0.0,1.0,55,0.00,,,0.00,weatherlink.com 1.10,2013-12-11 23:24:00,
2013-12-11 18:39:00,43.1,29.0,30.32,SE,136,0.0,1.0,58,0.00,,,0.00,weatherlink.com 1.10,2013-12-11 23:39:00,
2013-12-11 18:54:00,42.7,28.0,30.33,SE,136,0.0,1.0,56,0.00,,,0.00,weatherlink.com 1.10,2013-12-11 23:54:00,
2013-12-11 19:09:00,42.3,30.0,30.33,SE,136,0.0,1.0,62,0.00,,,0.00,weatherlink.com 1.10,2013-12-12 00:09:00,
2013-12-11 19:24:00,41.5,30.0,30.33,SE,136,0.0,1.0,64,0.00,,,0.00,weatherlink.com 1.10,2013-12-12 00:24:00,
2013-12-11 19:39:00,41.5,28.0,30.33,SE,136,0.0,1.0,59,0.00,,,0.00,weatherlink.com 1.10,2013-12-12 00:39:00,
2013-12-11 19:54:00,41.5,28.0,30.33,ESE,118,0.0,2.0,60,0.00,,,0.00,weatherlink.com 1.10,2013-12-12 00:54:00,
2013-12-11 20:09:00,41.5,30.0,30.33,ESE,118,2.0,2.0,63,0.00,,,0.00,weatherlink.com 1.10,2013-12-12 01:09:00,
2013-12-11 20:24:00,39.5,29.0,30.33,ESE,118,0.0,2.0,66,0.00,,,0.00,weatherlink.com 1.10,2013-12-12 01:24:00,
2013-12-11 20:39:00,38.8,29.0,30.33,ESE,118,0.0,2.0,67,0.00,,,0.00,weatherlink.com 1.10,2013-12-12 01:39:00,
2013-12-11 20:54:00,37.4,29.0,30.33,NNW,343,0.0,1.0,72,0.00,,,0.00,weatherlink.com 1.10,2013-12-12 01:54:00,
2013-12-11 21:09:00,36.4,28.0,30.33,East,85,0.0,3.0,72,0.00,,,0.00,weatherlink.com 1.10,2013-12-12 02:09:00,
2013-12-11 21:24:00,37.5,28.0,30.33,ESE,112,0.0,3.0,69,0.00,,,0.00,weatherlink.com 1.10,2013-12-12 02:24:00,
2013-12-11 21:39:00,37.5,27.0,30.33,NNW,336,1.0,3.0,67,0.00,,,0.00,weatherlink.com 1.10,2013-12-12 02:39:00,
2013-12-11 21:54:00,39.0,26.0,30.33,NW,310,0.0,5.0,60,0.00,,,0.00,weatherlink.com 1.10,2013-12-12 02:54:00,
2013-12-11 22:09:00,40.1,22.0,30.33,WNW,286,2.0,6.0,49,0.00,,,0.00,weatherlink.com 1.10,2013-12-12 03:09:00,
2013-12-11 22:24:00,42.0,20.0,30.32,West,274,4.0,8.0,41,0.00,,,0.00,weatherlink.com 1.10,2013-12-12 03:24:00,
2013-12-11 22:39:00,43.8,18.0,30.32,WSW,257,4.0,8.0,36,0.00,,,0.00,weatherlink.com 1.10,2013-12-12 03:39:00,
2013-12-11 22:54:00,43.8,18.0,30.32,NW,310,3.0,8.0,36,0.00,,,0.00,weatherlink.com 1.10,2013-12-12 03:54:00,
2013-12-11 23:09:00,41.9,18.0,30.32,North,349,3.0,7.0,39,0.00,,,0.00,weatherlink.com 1.10,2013-12-12 04:09:00,
2013-12-11 23:24:00,41.3,23.0,30.32,East,96,2.0,5.0,49,0.00,,,0.00,weatherlink.com 1.10,2013-12-12 04:24:00,
2013-12-11 23:39:00,37.2,23.0,30.32,North,354,0.0,5.0,57,0.00,,,0.00,weatherlink.com 1.10,2013-12-12 04:39:00,
2013-12-11 23:54:00,36.8,24.0,30.32,ENE,60,2.0,4.0,61,0.00,,,0.00,weatherlink.com 1.10,2013-12-12 04:54:00,